When you browse on this site, cookies collect data to enhance your experience and personalize the content and advertising you see.
Visit our Privacy Policy to learn more. By continuing to use the site, you agree to this use of cookies and data.
  • în România
  • Lista ţărilor
  • Pe 7 zile
  • Temperatura apei
  • Meteo pe hartă
  • Widget-uri
  • user-avatar
    Intrare

    Meteo pe oră la Bedford

    Astăzi, 27 Februarie, Joi

    Timp Temperatura Precipitaţii Vânt Presiune Umiditate
    00:00 +1°C° 0 mm 3 m/s 750 mmHg 87%
    01:00 +1°C° 0 mm 3 m/s 749 mmHg 87%
    02:00 +1°C° 0 mm 3 m/s 748 mmHg 87%
    03:00 +2°C° 0 mm 3 m/s 747 mmHg 87%
    04:00 +2°C° 0.8 mm 3 m/s 746 mmHg 91%
    05:00 +2°C° 0.8 mm 2 m/s 745 mmHg 94%
    06:00 +3°C° 0 mm 1 m/s 744 mmHg 97%
    07:00 +2°C° 1 mm 2 m/s 744 mmHg 97%
    08:00 +2°C° 1 mm 2 m/s 744 mmHg 97%
    09:00 +1°C° 1 mm 3 m/s 744 mmHg 97%
    10:00 +1°C° 0.1 mm 4 m/s 745 mmHg 92%
    11:00 +1°C° 0.1 mm 6 m/s 746 mmHg 87%
    12:00 +2°C° 0.1 mm 7 m/s 747 mmHg 81%
    13:00 +3°C° 0 mm 7 m/s 748 mmHg 77%
    14:00 +2°C° 0 mm 8 m/s 749 mmHg 72%
    15:00 +4°C° 0 mm 8 m/s 750 mmHg 68%
    16:00 +3°C° 0 mm 7 m/s 751 mmHg 71%
    17:00 +2°C° 0 mm 6 m/s 752 mmHg 74%
    18:00 +1°C° 0 mm 5 m/s 753 mmHg 78%
    19:00 0°C° 0 mm 5 m/s 754 mmHg 80%
    20:00 0°C° 0 mm 5 m/s 755 mmHg 81%
    21:00 0°C° 0 mm 4 m/s 756 mmHg 83%
    22:00 -1°C° 0 mm 4 m/s 756 mmHg 84%
    23:00 -1°C° 0 mm 4 m/s 757 mmHg 86%

    Mâine, 28 Februarie, Vineri

    Timp Temperatura Precipitaţii Vânt Presiune Umiditate
    00:00 -1°C° 0 mm 4 m/s 757 mmHg 87%
    01:00 -1°C° 0 mm 4 m/s 757 mmHg 87%
    02:00 0°C° 0 mm 3 m/s 757 mmHg 87%
    03:00 0°C° 0 mm 3 m/s 757 mmHg 87%
    04:00 0°C° 0 mm 3 m/s 756 mmHg 86%
    05:00 0°C° 0 mm 4 m/s 756 mmHg 85%
    06:00 0°C° 0 mm 4 m/s 756 mmHg 84%
    07:00 +1°C° 0.1 mm 5 m/s 755 mmHg 86%
    08:00 +1°C° 0.1 mm 6 m/s 754 mmHg 87%
    09:00 +2°C° 0.1 mm 7 m/s 753 mmHg 89%
    10:00 +1°C° 1.3 mm 8 m/s 752 mmHg 91%
    11:00 +1°C° 1.3 mm 9 m/s 751 mmHg 93%
    12:00 +1°C° 1.3 mm 10 m/s 750 mmHg 94%
    13:00 +2°C° 1.2 mm 9 m/s 748 mmHg 95%
    14:00 +5°C° 1.2 mm 8 m/s 747 mmHg 95%
    15:00 +6°C° 1.2 mm 8 m/s 745 mmHg 95%
    16:00 +7°C° 0.2 mm 8 m/s 745 mmHg 94%
    17:00 +9°C° 0.2 mm 8 m/s 744 mmHg 93%
    18:00 +10°C° 0.2 mm 7 m/s 744 mmHg 92%
    19:00 +9°C° 0 mm 8 m/s 743 mmHg 91%
    20:00 +8°C° 0 mm 9 m/s 743 mmHg 90%
    21:00 +8°C° 0 mm 9 m/s 742 mmHg 89%
    22:00 +8°C° 0 mm 9 m/s 742 mmHg 88%
    23:00 +8°C° 0 mm 10 m/s 741 mmHg 87%

    Poimâine, 29 Februarie, Sâmbătă

    Timp Temperatura Precipitaţii Vânt Presiune Umiditate
    00:00 +8°C° 0 mm 10 m/s 741 mmHg 86%
    01:00 +8°C° 0 mm 10 m/s 739 mmHg 86%
    02:00 +8°C° 0 mm 10 m/s 738 mmHg 86%
    03:00 +8°C° 0 mm 9 m/s 736 mmHg 85%
    04:00 +7°C° 0.2 mm 10 m/s 735 mmHg 86%
    05:00 +7°C° 0.2 mm 11 m/s 734 mmHg 86%
    06:00 +7°C° 0.2 mm 12 m/s 732 mmHg 86%
    07:00 +6°C° 1.7 mm 11 m/s 732 mmHg 88%
    08:00 +5°C° 1.7 mm 10 m/s 732 mmHg 90%
    09:00 +4°C° 1.7 mm 8 m/s 731 mmHg 92%
    10:00 +3°C° 0.6 mm 9 m/s 732 mmHg 83%
    11:00 +3°C° 0.6 mm 9 m/s 733 mmHg 74%
    12:00 +3°C° 0.6 mm 10 m/s 734 mmHg 66%
    13:00 +3°C° 0.2 mm 10 m/s 734 mmHg 66%
    14:00 +2°C° 0.2 mm 10 m/s 734 mmHg 67%
    15:00 +2°C° 0.2 mm 11 m/s 735 mmHg 68%
    16:00 +2°C° 0.1 mm 10 m/s 735 mmHg 70%
    17:00 +1°C° 0.1 mm 9 m/s 735 mmHg 72%
    18:00 0°C° 0.1 mm 8 m/s 735 mmHg 74%
    19:00 0°C° 0 mm 9 m/s 735 mmHg 74%
    20:00 0°C° 0 mm 9 m/s 735 mmHg 74%
    21:00 0°C° 0 mm 10 m/s 736 mmHg 74%
    22:00 0°C° 0 mm 10 m/s 735 mmHg 75%
    23:00 0°C° 0 mm 10 m/s 735 mmHg 75%

    1 Martie, Duminică

    Timp Temperatura Precipitaţii Vânt Presiune Umiditate
    00:00 0°C° 0 mm 10 m/s 735 mmHg 76%
    01:00 0°C° 0 mm 10 m/s 735 mmHg 75%
    02:00 0°C° 0 mm 10 m/s 735 mmHg 74%
    03:00 0°C° 0 mm 10 m/s 735 mmHg 73%
    04:00 0°C° 0 mm 10 m/s 735 mmHg 73%
    05:00 0°C° 0 mm 10 m/s 735 mmHg 73%
    06:00 0°C° 0 mm 9 m/s 735 mmHg 73%
    07:00 +1°C° 0 mm 9 m/s 735 mmHg 74%
    08:00 +1°C° 0 mm 10 m/s 735 mmHg 74%
    09:00 +2°C° 0 mm 10 m/s 735 mmHg 74%
    10:00 +3°C° 0 mm 10 m/s 735 mmHg 70%
    11:00 +3°C° 0 mm 10 m/s 736 mmHg 66%
    12:00 +5°C° 0 mm 10 m/s 736 mmHg 62%
    13:00 +5°C° 0.1 mm 9 m/s 736 mmHg 62%
    14:00 +5°C° 0.1 mm 9 m/s 736 mmHg 63%
    15:00 +5°C° 0.1 mm 9 m/s 735 mmHg 63%
    16:00 +4°C° 0 mm 8 m/s 736 mmHg 67%
    17:00 +3°C° 0 mm 7 m/s 736 mmHg 70%
    18:00 +2°C° 0 mm 6 m/s 736 mmHg 74%
    19:00 +1°C° 0 mm 6 m/s 736 mmHg 75%
    20:00 +1°C° 0 mm 6 m/s 736 mmHg 76%
    21:00 +1°C° 0 mm 6 m/s 737 mmHg 78%
    22:00 -1°C° 0 mm 6 m/s 737 mmHg 79%
    23:00 -1°C° 0 mm 6 m/s 737 mmHg 80%

    2 Martie, Luni

    Timp Temperatura Precipitaţii Vânt Presiune Umiditate
    00:00 -1°C° 0 mm 6 m/s 737 mmHg 81%
    01:00 0°C° 0 mm 5 m/s 737 mmHg 84%
    02:00 -1°C° 0 mm 4 m/s 737 mmHg 86%
    03:00 -1°C° 0 mm 4 m/s 738 mmHg 89%
    04:00 -1°C° 0 mm 4 m/s 738 mmHg 88%
    05:00 0°C° 0 mm 3 m/s 738 mmHg 87%
    06:00 -1°C° 0 mm 3 m/s 738 mmHg 86%
    07:00 0°C° 0 mm 4 m/s 739 mmHg 82%
    08:00 +1°C° 0 mm 5 m/s 739 mmHg 78%
    09:00 +2°C° 0 mm 5 m/s 739 mmHg 73%
    10:00 +3°C° 0.1 mm 6 m/s 740 mmHg 71%
    11:00 +4°C° 0.1 mm 6 m/s 740 mmHg 68%
    12:00 +5°C° 0.1 mm 7 m/s 741 mmHg 66%
    13:00 +5°C° 0.2 mm 6 m/s 741 mmHg 65%
    14:00 +5°C° 0.2 mm 6 m/s 741 mmHg 64%
    15:00 +5°C° 0.2 mm 6 m/s 741 mmHg 63%
    16:00 +5°C° 0.1 mm 5 m/s 742 mmHg 69%
    17:00 +3°C° 0.1 mm 5 m/s 742 mmHg 74%
    18:00 +1°C° 0.1 mm 4 m/s 743 mmHg 79%
    19:00 +1°C° 0 mm 4 m/s 743 mmHg 81%
    20:00 0°C° 0 mm 4 m/s 744 mmHg 82%
    21:00 -1°C° 0 mm 4 m/s 745 mmHg 84%
    22:00 -1°C° 0 mm 5 m/s 745 mmHg 84%
    23:00 -1°C° 0 mm 5 m/s 745 mmHg 85%

    3 Martie, Marţi

    Timp Temperatura Precipitaţii Vânt Presiune Umiditate
    00:00 -1°C° 0 mm 5 m/s 746 mmHg 85%
    01:00 -1°C° 0 mm 5 m/s 746 mmHg 86%
    02:00 -2°C° 0 mm 4 m/s 746 mmHg 86%
    03:00 -2°C° 0 mm 4 m/s 746 mmHg 87%
    04:00 -2°C° 0 mm 4 m/s 746 mmHg 87%
    05:00 -2°C° 0 mm 4 m/s 746 mmHg 88%
    06:00 -2°C° 0 mm 4 m/s 745 mmHg 88%
    07:00 0°C° 0 mm 3 m/s 745 mmHg 85%
    08:00 +1°C° 0 mm 3 m/s 745 mmHg 81%
    09:00 +2°C° 0 mm 3 m/s 745 mmHg 77%
    10:00 +3°C° 0 mm 3 m/s 745 mmHg 73%
    11:00 +4°C° 0 mm 3 m/s 745 mmHg 68%
    12:00 +5°C° 0 mm 3 m/s 745 mmHg 64%
    13:00 +7°C° 0 mm 3 m/s 745 mmHg 65%
    14:00 +7°C° 0 mm 3 m/s 744 mmHg 66%
    15:00 +7°C° 0 mm 2 m/s 744 mmHg 67%
    16:00 +6°C° 0.1 mm 2 m/s 744 mmHg 75%
    17:00 +5°C° 0.1 mm 2 m/s 744 mmHg 82%
    18:00 +5°C° 0.1 mm 1 m/s 744 mmHg 90%
    19:00 +4°C° 0 mm 1 m/s 744 mmHg 91%
    20:00 +4°C° 0 mm 1 m/s 744 mmHg 92%
    21:00 +3°C° 0 mm 0 m/s 745 mmHg 94%
    22:00 +4°C° 0 mm 1 m/s 745 mmHg 94%
    23:00 +4°C° 0 mm 1 m/s 745 mmHg 94%
    Arată mai mult